Location: ???????
(55.5813°N, 38.6682°E)
Time: 10:45:56
(UTC+00:00)

Daily predictions for brighter satellites

Satellite Brightness Start Highest point End
(mag) Time Altitude Azimuth Time Altitude Azimuth Time Altitude Azimuth
PSLV R/B 4.4 14:55:19 10° NNE 14:59:25 68° WNW 15:03:31 10° SSW
Cosmos 1821 Rocket 3.9 14:55:08 10° N 15:01:15 71° ENE 15:07:22 10° SSE
ATLAS 5 CENTAUR R/B 2.4 14:57:27 10° S 15:01:25 35° SE 15:05:51 10° ENE
Cosmos 1328 4.5 14:58:35 10° N 15:02:17 34° ENE 15:05:55 10° SE
Cosmos 1818 4.4 14:58:02 10° WSW 15:03:19 47° NNW 15:08:38 10° NE
Cosmos 1470 2.8 15:00:43 10° S 15:04:40 65° E 15:08:37 10° NNE
Cosmos 1733 3.7 15:01:22 10° SSW 15:05:12 67° WNW 15:09:06 10° N
Cosmos 2228 3.6 15:02:45 10° SSE 15:06:45 36° E 15:10:45 10° NNE
Envisat 3.0 15:02:24 10° SSE 15:07:29 79° ENE 15:12:36 10° NNW
Okean-O 3.0 15:03:20 10° S 15:07:45 71° WSW 15:12:13 10° NNW
Cosmos 2058 Rocket 4.0 15:05:36 10° SE 15:09:13 26° E 15:12:50 10° NNE
CZ-4 R/B 1.5 15:09:42 10° SSE 15:13:52 67° ENE 15:18:05 10° N
Cosmos 1934 Rocket 4.1 15:08:06 10° N 15:14:21 61° ENE 15:20:38 10° SSE
SL-24 R/B - RUBIN 2 4.2 15:10:11 10° SW 15:15:13 81° NW 15:20:59 10° NE
Nadezhda 3 Rocket 4.1 15:09:04 10° S 15:15:15 62° E 15:21:31 10° NNE
CZ-4 R/B 4.4 15:11:16 10° SSE 15:15:22 71° ENE 15:19:30 10° NNW
Cosmos 332 Rocket 4.0 15:10:36 10° SSW 15:15:26 76° WNW 15:20:22 10° NNE
Cosmos 921 Rocket 3.9 15:13:35 10° SSE 15:17:26 29° E 15:21:17 10° NE
Cosmos 2263 Rocket 2.8 15:13:32 10° SW 15:19:09 61° NW 15:24:46 10° NNE
CSL-04 Rocket 3.7 15:14:20 10° SSE 15:19:49 70° ENE 15:25:18 10° NNW
COSMO-SKYMED 1 2.9 15:18:10 10° NNE 15:22:22 45° E 15:26:33 10° S
ASTEX 1 3.5 15:19:18 10° NNE 15:24:10 54° E 15:29:01 10° SSE
Cosmos 2084 4.4 15:20:15 10° S 15:24:15 31° SE 15:27:58 11° ENE
NOAA 11 4.4 15:19:44 10° SE 15:24:58 49° ENE 15:30:12 10° N
USA 116 4.1 15:25:29 10° NE 15:28:11 26° E 15:30:57 10° SSE
Unknown 3.9 15:26:56 10° W 15:29:53 40° SSW 15:32:38 12° SE
Cosmos 1356 4.4 15:27:13 10° SSE 15:30:08 26° E 15:33:04 10° NE
Cosmos 1833 Rocket 2.9 15:24:46 10° NNW 15:30:18 54° NE 15:35:49 10° SE
FALCON 9 DEB 3.5 15:27:10 10° W 15:30:35 56° S 15:33:18 15° ESE
FREGAT/IRIS 4.2 15:30:52 16° ENE 15:31:16 16° ENE 15:33:06 10° NNE
Resurs 01 Rocket 3.6 15:30:15 11° ENE 15:31:29 12° NE 15:33:11 10° NNE
SJ 16-02 3.2 15:28:58 10° N 15:31:34 15° NE 15:33:28 12° ENE
Cosmos 1825 Rocket 4.3 15:28:05 10° NNW 15:32:23 58° W 15:36:41 10° S
Cosmos 1953 Rocket 3.7 15:29:49 10° NNW 15:34:15 77° W 15:38:36 10° S
Cosmos 1626 4.3 15:31:12 10° NNW 15:34:32 31° W 15:37:51 10° SSW
Cosmos 1271 Rocket 3.4 15:30:50 10° NNW 15:34:45 62° W 15:38:41 10° S
Unknown 3.5 15:31:40 10° W 15:35:07 57° S 15:37:42 17° ESE
EO 1 Delta rocket 3.9 15:31:23 10° SSE 15:35:55 62° ENE 15:40:52 10° N
Gbstr 26 Del rocket 4.3 15:31:20 10° W 15:37:04 61° S 15:43:22 13° ESE
ARGOS 4.3 15:34:03 13° E 15:37:34 25° NE 15:41:54 10° N
Unknown 4.5 15:33:56 10° SW 15:37:43 35° SSE 15:40:22 17° E
Unknown 4.4 15:35:24 10° SW 15:39:12 37° SSE 15:41:47 18° E
Unknown 3.5 15:36:17 10° W 15:39:38 54° S 15:41:58 18° ESE
SL-4 R/B 4.5 15:37:26 10° WSW 15:39:42 15° SW 15:41:52 10° S
Cosmos 2058 4.2 15:37:22 10° N 15:40:41 22° ENE 15:42:20 18° E
CZ-2D R/B 3.3 15:37:12 10° SSE 15:40:59 56° ENE 15:44:49 10° N
Unknown 4.4 15:40:27 10° SW 15:44:17 37° SSE 15:46:42 19° E
Cosmos 2227 Rocket 4.3 15:41:38 10° WNW 15:45:41 20° NNW 15:49:46 10° NNE
Unknown 4.4 15:42:07 10° SW 15:45:58 38° SSE 15:48:20 20° E
Cosmos 1726 2.3 15:42:39 10° SSE 15:46:09 44° E 15:49:39 10° NNE
SKYMED 3 4.5 15:42:04 10° NNE 15:46:26 73° ESE 15:50:46 10° S
Unknown 4.3 15:43:46 10° SW 15:47:37 38° SSE 15:49:56 20° E
Unknown 4.1 15:44:05 10° SW 15:47:56 43° SSE 15:50:16 21° E
Unknown 4.3 15:45:20 10° SW 15:49:12 39° SSE 15:51:26 21° E
Cosmos 839 Rocket 4.4 15:43:17 10° NW 15:49:24 66° SW 15:56:01 10° SSE
Cosmos 2082 Rocket 2.4 15:44:16 10° NNW 15:49:54 54° NE 15:54:33 15° ESE
Ariane Rocket 3.0 15:45:02 10° SSE 15:50:04 63° ENE 15:55:08 10° NNW
Unknown 4.3 15:47:02 10° SW 15:50:53 39° SSE 15:53:06 22° ESE
COSMOS 2406 3.5 15:45:17 10° NW 15:51:04 72° WSW 15:56:48 10° SSE
Falcon 9 debris 3.6 15:48:05 10° W 15:51:28 53° S 15:53:25 22° ESE
Cosmos 2297 Rocket 4.3 15:47:41 10° WNW 15:51:38 19° NNW 15:55:34 10° NNE
Cosmos 1242 Rocket 2.9 15:48:37 10° NNW 15:52:19 70° WSW 15:55:59 10° S
Cosmos 1606 Rocket 3.6 15:48:10 10° SSW 15:52:33 81° WNW 15:56:57 10° N
Cosmos 1703 3.2 15:49:20 10° NNW 15:53:20 89° ENE 15:57:16 10° S
Unknown 4.3 15:50:22 10° SW 15:54:15 40° SSE 15:56:20 23° ESE
Starlink (trailer) 4.2 15:52:01 10° SW 15:55:54 41° SSE 15:57:56 24° ESE
Unknown 4.2 15:53:38 10° SW 15:57:33 41° SSE 15:59:31 24° ESE
Unknown 3.6 15:54:54 10° W 15:58:21 54° S 16:00:04 26° ESE
Cosmos 1992 Rocket 3.9 15:53:34 10° SSW 15:58:48 85° ESE 16:04:04 10° NNE
Unknown 4.2 15:55:14 10° SW 15:59:09 42° SSE 16:01:04 25° ESE
Cosmos 1953 3.0 15:56:55 10° SSW 16:00:56 57° WNW 16:04:59 10° N
SPOT 3 Rocket 4.1 15:57:53 18° ESE 16:01:16 38° ENE 16:06:04 10° N
NOSS 3-3 (A) 4.4 15:54:16 10° NW 16:01:25 77° NE 16:07:45 18° ESE
NOSS 3-3 (C) 4.4 15:54:22 10° NW 16:01:30 77° NE 16:07:49 18° ESE
Lacrosse 5 1.9 15:57:10 10° WNW 16:02:15 81° SSW 16:05:32 22° ESE
Cosmos 724 4.4 15:56:44 10° SW 16:02:52 89° NW 16:08:55 10° NE
Cosmos 304 Rocket 4.5 15:58:53 10° SW 16:03:37 56° WNW 16:08:22 10° NNE
SJ-6B 3.6 16:03:02 27° E 16:03:56 31° ENE 16:07:17 10° N
Cosmos 1932 4.5 15:58:02 10° SW 16:04:21 82° SE 16:10:51 10° NE
Meteor 1-11 4.3 15:58:40 10° NNW 16:04:26 87° WSW 16:10:14 10° S
Cosmos 1777 Rocket 4.1 15:59:33 10° NNW 16:04:49 81° WSW 16:10:01 10° SSE
Unknown 4.1 16:01:43 10° SW 16:05:40 44° SSE 16:07:21 28° ESE
Unknown 4.1 16:01:52 10° SW 16:05:49 44° SSE 16:07:30 28° ESE
Cosmos 292 Rocket 4.0 16:01:40 10° S 16:06:11 46° ESE 16:10:45 10° NE
Unknown 4.1 16:02:35 10° SW 16:06:32 44° SSE 16:08:12 29° ESE
Unknown 3.6 16:05:44 10° WSW 16:09:25 59° S 16:10:50 33° ESE
MOS 1 4.3 16:04:45 10° SSE 16:10:21 66° ENE 16:15:58 10° NNW
SKYMED 2 3.8 16:06:09 10° NNE 16:10:30 71° WNW 16:14:50 10° SSW
Unknown 4.1 16:06:33 10° SW 16:10:31 46° SSE 16:12:02 31° ESE
Meteor 2-10 3.8 16:05:38 10° S 16:10:41 72° E 16:15:43 10° NNE
Unknown 4.1 16:06:49 10° SW 16:10:47 46° SSE 16:12:17 31° ESE
IRS-1A Rocket 4.1 16:05:24 10° SSE 16:10:54 80° ENE 16:16:28 10° NNW
Cosmos 1812 Rocket 4.2 16:07:12 10° SSE 16:11:09 33° E 16:15:09 10° NNE
Unknown 4.0 16:08:33 10° SW 16:12:32 47° SSE 16:13:59 32° ESE
Cosmos 1461 2.8 16:09:00 10° NW 16:13:03 84° SW 16:15:23 25° SE
Unknown 4.0 16:11:50 10° WSW 16:15:50 48° SSE 16:17:10 34° ESE
Unknown 4.0 16:12:19 10° WSW 16:16:19 47° SSE 16:17:37 34° ESE
Cosmos 2084 Rocket 3.5 16:11:59 10° NW 16:16:26 68° NNE 16:18:18 33° ESE
Cosmos 2061 Rocket 4.5 16:10:43 10° N 16:16:36 39° ENE 16:19:37 25° ESE
Unknown 3.6 16:13:14 10° WSW 16:17:01 58° S 16:18:13 38° ESE
Cosmos 1844 Rocket 2.8 16:11:28 10° SW 16:17:09 82° NW 16:22:50 10° NNE
Unknown 4.0 16:13:25 10° WSW 16:17:25 48° SSE 16:18:41 35° ESE
In-Cosmos 22 Rocket 4.4 16:14:02 10° N 16:19:09 44° ENE 16:21:40 27° ESE
H-2A R/B 2.5 16:16:45 25° ESE 16:19:25 44° ENE 16:24:34 10° N
Unknown 3.6 16:15:40 10° WSW 16:19:30 58° S 16:20:39 39° ESE
YAOGAN 1 3.9 16:16:12 10° S 16:20:18 41° W 16:24:26 10° NNW
Unknown 4.0 16:16:37 10° WSW 16:20:37 48° SSE 16:21:46 37° ESE
Meteor 1-16 Rocket 4.3 16:16:50 10° SSW 16:22:23 79° WNW 16:27:49 10° NNE
Cosmos 1076 Rocket 3.5 16:18:43 10° N 16:23:04 60° ENE 16:25:27 25° SSE
Unknown 3.9 16:20:00 10° WSW 16:24:01 50° SSE 16:25:03 39° ESE
HJ-1C 3.4 16:22:04 16° S 16:24:41 81° WSW 16:28:04 10° NNW
Unknown 3.9 16:21:40 10° WSW 16:25:41 50° SSE 16:26:39 40° ESE
BREEZE-M DEB (TANK) 4.4 16:21:29 10° SSW 16:27:02 20° SSE 16:27:50 19° SSE
Unknown 3.9 16:23:19 10° WSW 16:27:20 51° SSE 16:28:15 42° ESE
Cosmos 1939 Rocket 3.4 16:24:05 10° S 16:28:01 58° W 16:32:03 10° NNW
Unknown 3.9 16:24:57 10° WSW 16:29:00 51° SSE 16:29:51 43° SE
Unknown 3.9 16:28:14 10° WSW 16:32:16 52° SSE 16:33:00 45° SE
Unknown 3.8 16:29:57 10° WSW 16:34:01 53° SSE 16:34:41 47° SE
Cosmos 1908 3.2 16:30:35 10° SSW 16:34:29 84° W 16:38:25 10° N
Unknown 3.8 16:31:36 10° WSW 16:35:39 53° SSE 16:36:16 48° SE
Cosmos 2278 Rocket 2.4 16:30:17 10° S 16:35:41 47° ESE 16:40:44 12° NE
Unknown 3.8 16:33:12 10° WSW 16:37:15 53° SSE 16:37:47 49° SE
Unknown 3.8 16:33:41 10° WSW 16:37:44 54° SSE 16:38:16 49° SE
ATLAS CENTAUR R/B 3.0 16:34:10 10° NW 16:38:17 28° N 16:39:50 23° NE
Cosmos 1844 3.9 16:34:03 10° SW 16:39:47 74° NW 16:45:37 10° NNE
Cosmos 1339 Rocket 4.4 16:33:48 10° S 16:39:53 90° ESE 16:46:06 10° NNE
Unknown 3.8 16:36:22 10° WSW 16:40:25 53° SSE 16:40:49 51° SE
CZ-2C R/B 3.6 16:39:52 36° ESE 16:41:35 46° ENE 16:47:06 10° N
Unknown 3.8 16:39:43 10° WSW 16:43:46 54° SSE 16:44:04 53° SSE
Unknown 3.7 16:41:19 10° WSW 16:45:22 55° SSE 16:45:36 54° SSE
SL-27 R/B 4.4 16:43:00 10° N 16:44:19 18° NNE 16:44:19 18° NNE
ATLAS 5 CENTAUR R/B 2.1 16:41:19 10° WSW 16:45:48 63° NNW 16:48:45 24° NE
Cosmos 1459 Rocket 3.9 16:40:08 10° N 16:46:19 72° ENE 16:50:30 22° SSE
Cosmos 1898 Rocket 3.6 16:41:21 10° NNW 16:46:34 60° ENE 16:47:53 46° ESE
Cosmos 2058 Rocket 4.1 16:42:47 10° SSW 16:47:00 47° WNW 16:51:15 10° N
Unknown 3.7 16:43:13 10° WSW 16:47:17 56° S 16:47:28 55° SSE
Unknown 3.7 16:44:37 10° WSW 16:48:41 55° S 16:48:47 55° SSE
ADEOS Rocket 3.7 16:41:46 10° NNE 16:49:17 47° E 16:56:24 10° SSE
CZ-4 R/B 4.3 16:46:18 10° SW 16:49:19 19° W 16:52:22 10° NW
Unknown 3.7 16:46:18 10° WSW 16:50:22 56° S 16:50:25 56° SSE
Unknown 3.8 16:49:37 10° WSW 16:53:37 56° S 16:53:37 56° S
Unknown 3.8 16:51:18 10° WSW 16:55:14 57° S 16:55:14 57° S
Cosmos 921 Rocket 4.0 16:51:11 10° SW 16:55:33 49° WNW 16:59:55 10° NNE
USA 186 3.9 16:58:14 18° NNW 16:58:14 18° NNW 16:59:01 10° NNW
Unknown 3.8 16:52:57 10° WSW 16:56:50 56° S 16:56:50 56° S
Unknown 3.8 16:54:37 10° WSW 16:58:26 56° S 16:58:26 56° S
Cosmos 1727 Rocket 3.9 16:53:34 10° S 16:59:46 89° E 17:05:59 10° NNE
Cosmos 2151 3.4 16:56:03 10° N 16:59:33 48° NE 16:59:33 48° NE
Cosmos 1802 Rocket 3.9 16:55:12 10° N 17:01:41 77° ENE 17:04:58 31° SSE
FREGAT/IRIS 4.3 17:02:28 32° WNW 17:02:28 32° WNW 17:04:30 10° NNW
Unknown 3.9 16:57:55 10° WSW 17:01:37 55° SSW 17:01:37 55° SSW
Cosmos 2084 3.7 16:59:03 10° WSW 17:03:33 70° NNW 17:04:31 51° NNE
Unknown 3.9 16:59:30 10° WSW 17:03:08 55° SSW 17:03:08 55° SSW
Unknown 3.9 16:59:51 10° WSW 17:03:31 56° SSW 17:03:31 56° SSW
Cosmos 2263 Rocket 4.2 16:59:42 10° WNW 17:04:13 24° NNW 17:08:42 10° NNE
Unknown 4.0 17:01:27 10° WSW 17:05:04 55° SSW 17:05:04 55° SSW
Resurs 01 Rocket 2.1 17:07:50 47° NNE 17:07:50 47° NNE 17:11:26 10° N
Cosmos 2173 Rocket 4.0 17:01:55 10° NNW 17:08:16 85° W 17:12:17 24° S
Unknown 4.1 17:04:31 10° WSW 17:07:58 52° SW 17:07:58 52° SW
SJ 16-02 1.7 17:06:45 10° NNW 17:10:27 52° NNE 17:10:27 52° NNE
Cosmos 1864 Rocket 4.4 17:05:15 10° N 17:11:22 65° ENE 17:12:32 54° ESE
Unknown 4.2 17:07:49 10° WSW 17:11:09 50° SW 17:11:09 50° SW
Cosmos 1892 3.9 17:08:55 10° N 17:11:14 34° N 17:11:14 34° N
Unknown 4.2 17:09:32 10° WSW 17:12:50 49° SW 17:12:50 49° SW
Cosmos 1833 Rocket 3.9 17:08:57 10° NW 17:14:08 39° WSW 17:18:08 16° S
Okean 3 Rocket 3.5 17:10:15 10° NNW 17:14:47 88° NNE 17:14:47 88° NNE
Unknown 4.3 17:11:07 10° WSW 17:14:21 47° SW 17:14:21 47° SW
Terra 4.0 17:16:43 14° NNE 17:16:43 14° NNE 17:18:07 10° NNE
Unknown 4.3 17:12:51 10° WSW 17:16:01 46° SW 17:16:01 46° SW
ARGOS 3.1 17:15:35 45° S 17:17:19 83° WSW 17:22:48 10° NNW
Meteor 2-1 Rocket 4.1 17:18:00 65° E 17:18:00 65° E 17:23:21 10° NNE
Cosmos 2058 3.4 17:13:49 10° NNW 17:17:59 58° W 17:18:33 53° SW
Unknown 4.4 17:14:13 10° WSW 17:17:16 45° SW 17:17:16 45° SW
Cosmos 2123 Rocket 4.4 17:21:14 45° ENE 17:21:14 45° ENE 17:26:13 10° NNE
Cosmos 1766 Rocket 4.0 17:17:25 10° N 17:20:49 54° N 17:20:49 54° N
USA 238 DEB 3.9 17:18:16 10° SSW 17:23:37 47° SSE 17:23:37 47° SSE
USA 238 4.0 17:18:23 10° SSW 17:23:39 46° SSE 17:23:39 46° SSE
Cosmos 1725 Rocket 3.9 17:19:21 10° N 17:25:40 78° ENE 17:26:49 61° SE
Cosmos 2100 Rocket 4.4 17:21:10 10° NNW 17:27:18 62° W 17:31:39 20° S
Resurs 1-3 3.9 17:29:33 63° NNW 17:29:33 63° NNW 17:33:18 10° NNW
SL-08 RB Rocket 3.9 17:30:35 70° NW 17:30:35 70° NW 17:34:42 10° NNW
Cosmos 2233 Rocket 4.0 17:24:54 10° N 17:31:05 60° ENE 17:31:05 60° ENE
Cosmos 2227 Rocket 4.1 17:28:07 10° NNW 17:31:59 18° N 17:33:42 16° NNE
Cosmos 1000 Rocket 4.4 17:29:57 26° S 17:33:41 88° E 17:39:59 10° NNE
Cosmos 2082 Rocket 3.3 17:28:36 10° NW 17:33:55 40° WSW 17:36:25 26° SSW
Cosmos 2297 Rocket 4.1 17:33:58 10° NNW 17:37:53 19° NNE 17:39:15 17° NNE
SJ-6B 4.3 17:38:40 34° W 17:38:40 34° W 17:42:03 10° NNW
SPOT 3 Rocket 4.4 17:38:33 31° SSW 17:40:37 46° W 17:45:39 10° NNW
Cosmos 2298 Rocket 4.4 17:37:50 10° NNW 17:42:13 53° NNE 17:42:13 53° NNE
Lacrosse 5 3.1 17:40:21 10° WNW 17:44:44 32° SW 17:44:44 32° SW
Cosmos 1937 Rocket 3.6 17:41:16 10° NNW 17:46:01 69° WNW 17:46:01 69° WNW
Cosmos 2016 Rocket 4.3 17:45:29 10° NNW 17:51:39 63° W 17:53:32 44° SSW
H-2A R/B 3.2 17:57:23 33° SW 17:58:56 40° W 18:04:03 10° NNW
Spot 2 Rocket 4.2 18:03:53 49° NNW 18:03:53 49° NNW 18:07:34 10° NNW
Cosmos 1238 Rocket 4.1 18:00:45 10° N 18:06:52 74° NNE 18:06:52 74° NNE
GEOS 3 Rocket 4.3 18:11:05 48° NNW 18:11:05 48° NNW 18:15:00 10° NW
ATLAS CENTAUR R/B 3.4 18:13:35 10° NW 18:16:01 28° NNW 18:16:01 28° NNW
Cosmos 2278 Rocket 3.0 18:14:21 10° WSW 18:19:51 47° NW 18:22:40 27° NNE
ERS-1 Rocket 4.5 18:22:39 31° N 18:22:39 31° N 18:25:15 10° NNW
CZ-2C R/B 4.2 18:20:56 42° WSW 18:21:30 44° W 18:27:03 10° NNW
Meteor 2-3 Rocket 4.4 18:16:25 10° NNW 18:20:42 52° NNW 18:20:42 52° NNW
ATLAS 5 CENTAUR R/B 3.4 18:26:48 10° WNW 18:30:17 33° NNW 18:30:17 33° NNW
ADEOS Rocket 4.1 18:27:19 10° NNE 18:34:54 57° WNW 18:42:11 10° SW
Resurs 01 Rocket 4.0 18:45:24 21° WNW 18:45:24 21° WNW 18:47:35 10° NW
SJ 16-02 4.0 18:45:55 10° NW 18:47:27 17° WNW 18:47:27 17° WNW
Cosmos 2263 Rocket 4.4 18:46:38 10° NW 18:50:14 17° N 18:51:41 15° NNE
Terra 4.1 18:55:36 19° N 18:55:36 19° N 18:57:00 10° NNW
Cosmos 2227 Rocket 4.1 19:12:38 10° NNW 19:15:30 25° N 19:15:30 25° N
Cosmos 2297 Rocket 4.1 19:18:22 10° NNW 19:21:02 25° N 19:21:02 25° N
Cosmos 2278 Rocket 4.4 20:01:06 10° WNW 20:08:53 13° NNE 20:09:35 10° NNE
SL-16 R/B 4.4 21:30:42 26° NNE 21:30:42 26° NNE 21:33:50 10° N
Cosmos 2344 4.2 22:25:22 56° N 22:25:22 56° N 22:34:55 10° ENE
ATLAS 3B R/B 3.9 22:38:35 36° NE 22:38:35 36° NE 22:43:12 10° ENE
Cosmos 2369 Rocket 4.5 22:48:03 18° N 22:48:03 18° N 22:51:33 10° NNE
CENTAUR R/B 3.6 22:50:01 49° N 22:50:12 49° N 22:58:06 10° E
Cosmos 2322 Rocket 4.4 22:56:26 19° ENE 22:56:26 19° ENE 22:58:49 10° NE
Cosmos 1980 Rocket 3.8 23:13:32 31° NE 23:13:32 31° NE 23:16:26 10° NE
SL-16 R/B 4.3 23:15:48 22° NNW 23:15:48 22° NNW 23:17:53 10° NNW
Resurs 1-4 Rocket 3.8 23:17:53 10° NNE 23:20:31 30° NNE 23:20:31 30° NNE
NOSS 3-2 (A) 4.1 23:26:07 64° NNE 23:26:07 64° NNE 23:34:03 10° ESE
Cosmos 1943 Rocket 4.5 23:29:22 15° NNW 23:31:09 17° N 23:34:47 10° NE
Cosmos 2278 Rocket 3.9 23:32:49 11° NNW 23:37:35 30° NNE 23:42:35 10° E
USA 267 4.4 23:34:55 10° ENE 23:40:00 31° ESE 23:40:00 31° ESE
NOSS 3-2 (C) 4.2 23:46:52 51° NNW 23:48:32 63° NNE 23:56:29 10° ESE
CZ-2D R/B 3.5 23:49:11 10° NNE 23:51:59 33° N 23:51:59 33° N
